Regional Weather Roundup
Issued by NWS

Home | Current Version | Previous Version | Graphics & Text | Print | Product List | Glossary On
Versions: 1 2 3 4 5 6 7 8 9 10 11 12 13 14 15 16 17 18 19 20 21 22 23 24 25 26 27 28 29 30 31 32 33 34 35 36 37 38 39 40 41 42 43 44 45 46 47 48 49 50
550
ASUS44 KMEG 061700
RWRTN
TENNESSEE HOURLY STATE WEATHER ROUNDUP
NATIONAL WEATHER SERVICE MEMPHIS TN
1100 AM CST SAT FEB 06 2016

TNZ002-004-019-021-049-052-054-088>092-061800-
WEST TENNESSEE

CITY           SKY/WX    TMP DP  RH WIND       PRES   REMARKS
MEMPHIS INTL   PTSUNNY   52  22  30 CALM      30.38F
NWS MEMPHIS      N/A     51 N/A N/A MISG        N/A
JACKSON        SUNNY     49  25  39 CALM      30.38F
DYERSBURG      SUNNY     50  25  37 NW8       30.40F
UNION CITY     SUNNY     46  30  53 SW6       30.37F
PARIS          SUNNY     46  21  36 W6        30.38F
LEXINGTON      SUNNY     48  21  34 CALM      30.38F
$$

TNZ008-025-027-028-033-062-065-066-061800-
NORTH MIDDLE TENNESSEE

CITY           SKY/WX    TMP DP  RH WIND       PRES   REMARKS
NASHVILLE      PTSUNNY   50  16  25 CALM      30.40F
CLARKSVILLE    MOSUNNY   49  23  36 SW6       30.38F
COOKEVILLE     SUNNY     46  18  31 CALM      30.37F
CROSSVILLE     SUNNY     44  16  32 N6        30.35F
$$

TNZ061-075-076-078-094-096-097-061800-
SOUTH MIDDLE TENNESSEE

CITY           SKY/WX    TMP DP  RH WIND       PRES   REMARKS
TULLAHOMA      SUNNY     45  12  26 CALM      30.38F
WINCHESTER     SUNNY     45  19  36 N5        30.38F
MCMINNVILLE    SUNNY     46  18  31 CALM      30.38S
COLUMBIA       SUNNY     48  23  37 N3        30.37F
SHELBYVILLE    SUNNY     48  19  32 CALM      30.39F
$$

TNZ017-018-042-046-047-061800-
NORTHEAST TENNESSEE

CITY           SKY/WX    TMP DP  RH WIND       PRES   REMARKS
TRI CITIES     PTSUNNY   38  21  50 CALM      30.38F
$$

TNZ012-013-036-069-073-074-061800-
CENTRAL EAST TENNESSEE

CITY           SKY/WX    TMP DP  RH WIND       PRES   REMARKS
KNOXVILLE      MOSUNNY   45  22  40 NE5       30.39F
OAK RIDGE      SUNNY     44  19  36 CALM      30.40F
GATLINBURG       N/A     43  16  33 CALM      30.38F
$$

TNZ083-085-099-061800-
SOUTHEAST TENNESSEE

CITY           SKY/WX    TMP DP  RH WIND       PRES   REMARKS
CHATTANOOGA    PTSUNNY   43  24  47 CALM      30.40F
$$

SKY/WX REPORTED AS FAIR MEANS FEW OR NO CLOUDS BELOW
12 THOUSAND FEET.





USA.gov is the U.S. government's official web portal to all federal, state and local government web resources and services.